Meath Environmental Platform

Observations for Trim Market St

Time AQI Temp °C Hum % Pres Pa CO μg/m³ H₂S μg/m³ NO μg/m³ NO₂ μg/m³ O₃ μg/m³ SO₂ μg/m³ PM1 μg/m³ PM2.5 μg/m³ PM10 μg/m³
Thursday 13 August 2026
19:23 3 31.8 40 66,023 0 3.22 0.34 22.16 55.05 0 0.71 2.89 3.18
19:22 3 31.9 40 66,054 0 3.37 0.31 13.6 57.59 0 0 2.89 3.18
19:21 3 31.9 40 66,062 0 6.55 0.31 17.57 61.28 0 0 2.37 3.49
19:20 3 31.9 40 66,074 0 5.23 0.3 21.88 59.14 0 0 2.9 3.19
19:19 3 32 39 66,090 0 2.83 0.29 14.83 60.2 0 0.71 2.91 3.2
19:18 3 32 39 66,078 0 1.03 0.27 14.4 57.41 0 0 2.91 3.2
19:17 3 32 39 66,064 0 0.38 0.29 16.02 56.47 0 0.71 3.44 3.79
19:13 3 32.2 40 66,094 0 3.73 0.24 14.6 58.27 0 0.71 3.96 4.36
19:12 3 32.2 39 66,078 0 5.2 0.24 14.77 59.64 0 0.71 2.91 3.2
19:11 3 32.2 40 66,060 0 5.66 0.25 14.45 60.24 0 0 2.9 3.19
19:08 3 32.3 39 66,106 0 6.78 0.26 29.58 56.06 0 0 2.39 2.63
19:00 3 32.4 39 66,106 0 10.38 0.52 32.66 54.97 0 0 2.92 3.21
18:59 3 32.4 39 66,100 0 12.34 0.52 102.36 14.51 0 0.71 3.45 3.8
18:58 3 32.4 39 66,088 0 13.18 0.52 66.21 39 0 0.71 3.98 4.37
18:57 3 32.4 39 66,100 0 12.13 0.31 35.2 53.85 0 0.71 3.45 3.79
18:56 3 32.4 39 66,117 0 12.26 0.24 29.48 57.47 0 0 2.92 3.22
18:55 3 32.4 39 66,143 0 11.32 0.22 25.08 61.61 0 0.71 3.99 4.39
18:53 3 32.4 39 66,113 0 7.53 0.19 15.14 58.2 0 0 2.93 3.22
18:51 3 32.4 39 66,090 0 6.53 0.23 14.18 53.58 0 0.71 3.45 3.8
18:50 3 32.4 39 66,078 0 12.05 0.23 17.46 57.26 0.41 0 2.92 3.21